Flag for Switzerland Weather past 2 weeks in Winterthur, Switzerland

Now
55 °F

Passing clouds.


Feels Like: 55 °F
Forecast: 47 / 71 °F
Wind: 3 mph from South

Location: Zurich-Kloten


UV Index: 3 (Moderate)

Visibility: N/A


Pressure: 30.09 "Hg

Humidity: 72%

Dew point: 46 °F

Location of WinterthurLocation

Historic Weather in Winterthur

°F

Winterthur temperature yesterday

Maximum temperature yesterday: 72 °F (at 4:20 PM)
Minimum temperature yesterday: 45 °F (at 5:50 AM)
Average temperature yesterday: 58 °F

Past Weeks' High & Low Weather Summary

 TemperatureHumidityPressure
High72 °F (Apr 23, 4:20 PM)100% (Apr 10, 6:20 AM)30.33 "Hg (Apr 10, 6:20 AM)
Low32 °F (Apr 16, 5:20 AM)25% (Apr 17, 6:20 PM)29.65 "Hg (Apr 20, 3:50 PM)
Average50 °F66%30.02 "Hg
* Reported Apr 9 12:20 AM — Apr 24 12:20 AM, Winterthur, Weather by CustomWeather, © 2014

Note: Actual official high and low records may vary slightly from our data, if they occured in-between our weather recording intervals... More about our weather records

Advertising

Historic Weather Conditions — Data for Previous 24 hours

 ConditionsComfort  
Time TempWeatherWind HumidityBarometerVisibility
12:20 AM
Apr 24
54 °FPassing clouds.2 mph77%30.09 "HgN/A
11:50 PM
Apr 23
54 °FPassing clouds.6 mph77%30.07 "HgN/A
11:20 PM55 °FPassing clouds.3 mph67%30.07 "HgN/A
10:50 PM54 °FPassing clouds.6 mph72%30.07 "HgN/A
10:20 PM57 °FPassing clouds.5 mph67%30.07 "HgN/A
9:50 PM59 °FPassing clouds.3 mph63%30.07 "HgN/A
9:20 PM61 °FPassing clouds.5 mph55%30.04 "HgN/A
8:50 PM64 °FPassing clouds.5 mph49%30.04 "HgN/A
8:20 PM66 °FPassing clouds.6 mph43%30.04 "HgN/A
7:50 PM68 °FPassing clouds.7 mph43%30.01 "HgN/A
7:20 PM68 °FPassing clouds.9 mph40%30.01 "HgN/A
6:50 PM70 °FPassing clouds.9 mph38%30.01 "HgN/A
6:20 PM70 °FPassing clouds.10 mph35%30.01 "HgN/A
5:50 PM70 °FPassing clouds.9 mph35%30.01 "HgN/A
5:20 PM70 °FPassing clouds.8 mph38%30.01 "HgN/A
4:50 PM72 °FPassing clouds.9 mph33%30.01 "HgN/A
4:20 PM72 °FPassing clouds.8 mph36%30.01 "HgN/A
3:50 PM70 °FPassing clouds.10 mph38%30.04 "HgN/A
3:20 PM70 °FPassing clouds.8 mph38%30.04 "HgN/A
2:50 PM70 °FPassing clouds.8 mph38%30.04 "HgN/A
2:20 PM70 °FPassing clouds.9 mph40%30.04 "HgN/A
1:50 PM68 °FPassing clouds.9 mph43%30.07 "HgN/A
1:20 PM68 °FPassing clouds.6 mph43%30.07 "HgN/A
12:50 PM64 °FPassing clouds.5 mph56%30.09 "HgN/A
12:20 PM63 °FPassing clouds.5 mph59%30.09 "HgN/A
11:50 AM63 °FPassing clouds.2 mph56%30.09 "HgN/A
11:20 AM61 °FSunny.2 mph59%30.09 "Hg10 mi
10:50 AM61 °FPassing clouds.3 mph63%30.09 "HgN/A
10:20 AM57 °FSunny.2 mph72%30.09 "Hg10 mi
9:50 AM55 °FSunny.2 mph72%30.09 "Hg10 mi
9:20 AM54 °FScattered clouds.3 mph82%30.09 "HgN/A
8:50 AM52 °FScattered clouds.3 mph82%30.09 "HgN/A
8:20 AM50 °FScattered clouds.3 mph88%30.09 "HgN/A
7:50 AM48 °FScattered clouds.1 mph87%30.09 "HgN/A
7:20 AM45 °FClear.No wind93%30.09 "Hg10 mi
6:50 AM45 °FClear.1 mph93%30.09 "Hg10 mi
6:20 AM45 °FClear.5 mph93%30.07 "Hg10 mi
5:50 AM45 °FClear.3 mph100%30.07 "Hg10 mi
5:20 AM46 °FClear.3 mph93%30.07 "Hg10 mi
4:50 AM46 °FClear.2 mph93%30.07 "Hg10 mi
4:20 AM46 °FClear.2 mph93%30.07 "Hg10 mi
3:50 AM46 °FClear.2 mph93%30.07 "Hg10 mi
3:20 AM46 °FClear.No wind93%30.04 "Hg10 mi
2:50 AM46 °FClear.No wind93%30.04 "Hg10 mi
1:50 AM46 °FPassing clouds.2 mph93%30.04 "HgN/A
1:20 AM46 °FClear.No wind93%30.04 "Hg10 mi
Weather by CustomWeather, © 2014

See weather overview